Cloud_Cover
5 0 0 5 2 0 4 44 5 0 0 24 100 100 100 100 100 100 100 100 100 100 100 100 100 62 100 96 100 100 100 100 100 100 100 100 100 100 100 100 100 100 100 100
0 4 2 5 5 5 5 59 72 17 0 0 94 100 100 100 100 100 100 100 100 100 100 100 100 100 100 75 85 99 100 100 100 100 100 100 100 100 100 100 100 100 100 100
0 0 9 17 5 10 5 5 17 44 5 0 0 22 19 1 27 100 100 100 100 100 100 100 100 100 100 97 74 59 96 100 100 94 49 42 34 8 20 50 100 100 100 100
0 0 0 0 15 6 18 5 5 6 35 4 0 0 0 0 0 97 100 100 100 100 100 100 100 100 100 100 100 97 71 80 100 95 88 78 22 16 8 12 87 100 100 98
4 0 0 0 0 0 3 5 10 11 5 18 3 0 0 0 0 1 97 100 68 24 100 100 100 100 100 100 100 100 100 100 100 96 85 100 84 98 96 79 100 100 100 100
100 97 23 0 0 0 0 0 2 5 5 5 5 1 0 0 0 0 0 6 84 44 6 80 96 100 100 100 100 100 100 100 100 100 100 86 96 72 90 96 98 99 100 100
100 100 100 100 28 2 0 0 0 0 0 3 5 0 0 0 0 0 0 0 0 0 0 0 2 5 77 100 100 100 100 100 100 100 100 100 100 100 98 100 97 100 100 100
100 100 100 100 75 45 43 32 5 0 0 0 0 0 3 3 0 0 0 0 0 0 0 0 0 0 3 1 46 100 23 98 100 100 100 100 100 100 100 100 100 100 100 100
94 96 100 100 100 68 36 5 5 5 1 4 0 0 0 0 0 0 0 0 0 0 0 0 0 0 0 0 0 0 3 2 0 28 100 100 100 100 100 100 100 100 100 100
95 81 100 100 100 100 14 71 86 31 21 5 0 0 0 2 0 0 0 0 0 0 0 0 0 0 0 0 0 0 0 0 0 0 0 19 61 86 100 100 100 100 100 49
97 70 45 100 100 100 94 75 94 99 49 61 6 0 0 0 0 0 0 0 0 0 0 0 0 0 0 0 0 0 0 0 0 0 0 0 0 0 0 0 0 23 100 61
100 57 100 100 23 100 100 100 100 99 90 46 30 1 0 0 0 0 0 0 0 0 0 0 0 0 0 0 0 0 0 0 0 0 0 0 0 0 0 0 0 0 0 0
100 100 100 100 76 25 5 11 7 24 84 46 99 15 0 0 0 0 0 0 0 0 0 0 0 0 0 0 0 0 0 0 0 0 0 0 0 0 0 0 0 0 0 0
91 100 100 100 100 49 100 67 49 99 100 6 80 1 0 0 1 0 2 0 2 1 0 0 0 0 0 0 0 0 0 0 0 9 0 0 0 0 0 0 0 0 0 0
99 100 71 100 98 49 100 70 7 80 9 93 7 7 0 0 5 5 4 5 5 5 4 0 0 0 0 0 0 0 0 3 0 13 1 0 0 0 0 0 0 0 0 0
99 100 100 100 99 78 100 10 5 5 5 38 5 5 5 5 5 5 5 5 5 5 5 5 2 0 0 0 0 0 2 5 41 51 29 13 0 0 0 0 0 3 0 1
98 95 90 88 98 23 7 4 1 23 5 5 5 5 5 14 20 76 100 35 9 5 5 5 6 2 13 24 3 6 7 5 61 71 50 46 66 19 0 40 63 100 100 93
100 100 100 94 56 83 6 5 3 5 3 5 5 33 75 54 26 93 100 92 100 92 66 98 70 100 100 100 100 94 5 23 25 100 53 100 100 54 73 99 100 100 100 100
69 100 100 100 96 26 14 4 3 20 52 100 58 96 50 98 65 70 100 100 98 100 90 95 100 100 100 100 100 66 82 66 44 100 74 100 100 100 100 100 100 100 100 100
100 100 100 100 96 100 10 10 13 80 90 100 100 57 100 62 96 65 85 94 100 100 99 100 100 100 100 100 100 100 100 94 97 100 100 100 100 100 100 100 100 100 91 93
100 100 100 100 100 30 5 7 82 100 84 95 93 100 100 99 100 100 86 100 90 100 95 100 100 99 97 100 100 100 100 100 74 100 100 100 100 100 100 100 100 99 100 100
22 100 100 95 100 64 6 86 100 100 100 100 100 69 46 100 91 100 100 100 99 100 100 100 100 100 100 100 97 100 94 100 98 100 100 100 100 100 100 100 100 100 100 100
82 98 95 72 5 90 100 100 100 92 100 78 18 5 40 81 100 100 100 100 100 82 100 100 100 100 100 100 100 100 29 83 100 100 100 100 100 100 100 100 100 100 100 100
78 48 89 98 100 82 100 100 100 97 18 5 5 6 86 100 100 100 100 100 100 100 100 100 100 100 100 100 100 96 74 60 95 100 100 100 100 100 100 100 100 100 100 100
100 100 100 100 91 100 100 100 100 78 14 5 6 98 100 100 100 100 100 100 100 100 100 100 100 100 100 100 100 100 84 96 100 100 100 100 100 100 100 100 100 96 6 4
100 100 100 100 100 100 100 92 83 29 5 53 99 100 100 100 100 100 100 100 100 100 100 100 100 100 100 99 100 100 100 100 100 100 100 100 100 100 100 100 100 100 91 100